VIPER1 KMKE-KMKE

Flight info

Callsign VIPER1
Flight time 0h 3m
Altitude
Route
Aircraft F22/M-VW/C

Departure

Time 2026-05-08 01:26
Airport General Mitchell International Airport (KMKE)

Arrival

Time 2026-05-08 01:30
Airport General Mitchell International Airport (KMKE)
Time Latitude Longitude Altitude Speed Heading
2026-05-08 01:17 42.94156 -87.88951 685 ft 0 kts 277°
2026-05-08 01:19 42.94162 -87.88976 685 ft 9 kts 297°
2026-05-08 01:19 42.94229 -87.88989 685 ft 11 kts
2026-05-08 01:19 42.94311 -87.88975 685 ft 13 kts
2026-05-08 01:19 42.94351 -87.88895 685 ft 13 kts 96°
2026-05-08 01:20 42.94395 -87.88807 685 ft 13 kts 39°
2026-05-08 01:20 42.94484 -87.88788 685 ft 14 kts 357°
2026-05-08 01:20 42.94579 -87.88828 685 ft 15 kts 341°
2026-05-08 01:20 42.94682 -87.88875 685 ft 16 kts 341°
2026-05-08 01:21 42.94705 -87.88977 685 ft 9 kts 251°
2026-05-08 01:21 42.94703 -87.88985 683 ft 1 kts 251°
2026-05-08 01:21 42.94695 -87.89019 685 ft 9 kts 252°
2026-05-08 01:21 42.94654 -87.89190 685 ft 22 kts 251°
2026-05-08 01:22 42.94608 -87.89394 685 ft 23 kts 268°
2026-05-08 01:22 42.94626 -87.89605 685 ft 19 kts 272°
2026-05-08 01:22 42.94534 -87.89704 685 ft 18 kts 236°
2026-05-08 01:22 42.94482 -87.89898 685 ft 27 kts 251°
2026-05-08 01:23 42.94423 -87.90141 684 ft 27 kts 251°
2026-05-08 01:23 42.94363 -87.90390 685 ft 28 kts 251°
2026-05-08 01:23 42.94302 -87.90640 685 ft 28 kts 251°
2026-05-08 01:23 42.94240 -87.90895 683 ft 25 kts 251°
2026-05-08 01:24 42.94184 -87.91121 681 ft 26 kts 251°
2026-05-08 01:24 42.94128 -87.91352 685 ft 26 kts 247°
2026-05-08 01:24 42.94070 -87.91589 685 ft 27 kts 253°
2026-05-08 01:24 42.94021 -87.91776 682 ft 15 kts 231°
2026-05-08 01:25 42.94006 -87.91791 682 ft 0 kts 203°
2026-05-08 01:25 42.94003 -87.91793 683 ft 5 kts 203°
2026-05-08 01:25 42.93921 -87.91764 685 ft 13 kts 149°
2026-05-08 01:26 42.93975 -87.91499 685 ft 93 kts 71°
2026-05-08 01:26 42.94327 -87.90041 740 ft 191 kts 72°
2026-05-08 01:26 42.94750 -87.88354 1459 ft 194 kts 72°
2026-05-08 01:26 42.94687 -87.86575 1734 ft 203 kts 139°
2026-05-08 01:27 42.93344 -87.86033 1924 ft 226 kts 199°
2026-05-08 01:27 42.92237 -87.87473 2116 ft 228 kts 242°
2026-05-08 01:27 42.91516 -87.89406 2099 ft 228 kts 242°
2026-05-08 01:27 42.90828 -87.91342 1972 ft 228 kts 245°
2026-05-08 01:28 42.90541 -87.93156 1931 ft 174 kts 291°
2026-05-08 01:28 42.91317 -87.94459 1658 ft 181 kts 329°
2026-05-08 01:28 42.92478 -87.95117 1652 ft 182 kts
2026-05-08 01:28 42.93403 -87.94236 1401 ft 169 kts 81°
2026-05-08 01:29 42.93696 -87.92719 938 ft 167 kts 74°
2026-05-08 01:29 42.94029 -87.91279 680 ft 139 kts 71°
2026-05-08 01:29 42.94272 -87.90279 681 ft 92 kts 71°
2026-05-08 01:29 42.94439 -87.89595 685 ft 61 kts 71°
2026-05-08 01:30 42.94560 -87.89099 680 ft 35 kts 71°
2026-05-08 01:30 42.94610 -87.88875 685 ft 15 kts 95°
2026-05-08 01:30 42.94528 -87.88805 685 ft 15 kts 161°
2026-05-08 01:30 42.94421 -87.88792 685 ft 16 kts 184°
2026-05-08 01:31 42.94321 -87.88842 685 ft 16 kts 187°
2026-05-08 01:31 42.94205 -87.88862 685 ft 17 kts 187°
2026-05-08 01:31 42.94155 -87.88946 685 ft 6 kts 277°
2026-05-08 01:31 42.94156 -87.88949 685 ft 0 kts 277°